Volver al catálogo

STARLINK-36534

ActivoComunicacionesVLEO
NORAD 67496·PAYLOAD·🇺🇸 United States

Lanzado Jan 18, 2026 desde Cape Canaveral Space Force Station

Loading…

Próximos Pases (próximas 24 horas)

TLE

ActualizadoSource: CelesTrak SupGP

Época: Sep 14, 2026, 23:17 UTC

1 67496C 26012D   26257.97062500 -.00000739  00000+0 -26775-4 0  2572
2 67496  43.0008 325.6380 0001514 258.3571 250.0956 15.27562051    10

Sigue STARLINK-36534 en tiempo real con AllMySat

Download on the App Store